Location: Anglesey
(53.1800°N, 4.2200°W)
Time: 12:04:29
(UTC+00:00)

Envisat - Pass Details

Date: 12 October 2017
Orbit: 764 x 766 km, 98.2° (Epoch: 11 December)

Event Time Altitude Azimuth Distance (km) Brightness Sun altitude
Exits shadow 19:53:06 17° 121° (ESE) 1,890 4.5 -13.6°
Maximum altitude 19:56:32 37° 63° (ENE) 1,194 3.6 -14.1°
Drops below altitude 10° 20:01:11 10° 358° (N) 2,319 5.6 -14.8°
Sets 20:03:38 0° 350° (N) 3,250 6.5 -15.2°
